ONEWEB-0699, 61605

Orbit data source: Space-Track

ONEWEB-0699, 61605 is a payload satellite owned by Eut. One Web (UK) in LEO that was launched on Sun, 20 Oct 2024 UTC via an FALCON 9 launch vehicle from the Air Force Western Test Range (AFWTR). Payload-class satellites include a variety of spacecraft equipped with specific instruments for various scientific and technological missions. These include communications satellites like Starlink; space stations such as the ISS; scientific satellites like the Hubble; Earth observation satellites from companies like Planet Labs, Umbra, and HawkEye 360; GPS; miniature CubeSats for education and research; and military/defense satellites.

Loading next visibility...
Identifier
61605, 2024-188M
Orbit
LEO
Last TLE update
11 hours ago
Origin
Manufacturer
One Web
Mission
Operational Commercial Communications
Bus & Motor
ARROW, Unknown motor
Mass
148 kg wet, ~140 kg dry
Launch date (UTC)
2024-10-20 (8 months ago)
Launch vehicle
FALCON 9
Launch site
Air Force Western Test Range (AFWTR)
Object type
Payload
Rocket body
Debris
Shape & HBR
Trap Box + 2 Pan, 5 m
Radar Cross Section
2.032 m², Large (>1 m²)

Expand to show TLE details & history

TLE from 11 hours ago
0 ONEWEB-0699
1 61605U 24188M   25173.11360966 -.00008560  00000-0 -24599-1 0  9992
2 61605  87.8818 108.0559 0002463  69.9394 290.1998 13.10323220 34285
Epoch: 2025-06-22T02:43Z
TLE epoch observation values (Epoch: 2025-06-22T02:43:35.874Z)
Latitude
-0.00005°
Longitude
156.61353°
Altitude
1,224.15 km
Speed
7.243 km/s
True Right ascension
07h 12m 13s
True Declination
0° 00' 00"
Sunlit
Object was in daylight at epoch
Visualization orbit readout
Latitude
80.42873°
Longitude
169.12455°
Altitude
1,233.597 km
Speed
7.245 km/s
Apparent Right ascension
12h 17m 42s
Apparent Declination
32° 40' 01"
Sunlit
Object is in daylight
Visualization observer readout
Local Sidereal Time
01:11:30
Azimuth
11.774° NNE
Elevation
-16.357°
Doppler factor
1
Orbital elements
Apogee altitude
1,220.9 km
Perigee altitude
1,217.158 km
Semi-major axis
7,597.166 km
Eccentricity
0.00025
Inclination
87.8818°
RAAN
108.0559°
Arg. of periapsis
69.9394°
True anomaly
Unknown
Mean anomaly
290.1998°
Eccentric anomaly
Unknown
Mean motion
3.27767 °/min
Orbital period
109.83 mins
BSTAR
-0.024599
Loading maneuver chart data...
Loading SW <> Apogee altitude chart data...
Loading historical data...
Loading historical data...
Loading historical data...
Loading historical data...
Loading historical data...
Loading historical data...
Loading historical data...

ONEWEB-0699 Visibility forecast

Observer location: undefined°, undefined°

Span
Click to sort rows by Start time (UTC) header in descending order
Start Az.
Max El. time (UTC)
Max El. Az.
Max El.
End time (UTC)
End Az.
13 mins2025-06-22 19:18:56.174Z148.758° SSE2025-06-22 19:25:56.174Z75.239° E33.808°2025-06-22 19:31:56.174Z15.824° NNE
11 mins2025-06-22 21:10:56.174Z225.466° WSW2025-06-22 21:15:56.174Z284.245° WNW29.468°2025-06-22 21:21:56.174Z341.95° N
12 mins2025-06-23 06:49:56.174Z22.076° NNE2025-06-23 06:54:56.174Z72.558° E29.103°2025-06-23 07:01:56.174Z143.277° SSE
12 mins2025-06-23 08:39:56.174Z341.427° N2025-06-23 08:45:56.174Z268.759° W33.943°2025-06-23 08:51:56.174Z211.52° SW
|